Weather observations for the past three days for
Torrance, Zamperini Field Airport
Imperial (Metric)
Date Time (pdt) Wind (mph) Vis. (mi.) Weather Sky Cond. Temperature (ºF) Relative Humidity Wind Chill (°F) Heat Index (°F) Pressure Precipitation (in)
Air Dwpt 6 hour altimeter (in) sea level (mb) 1 hr 3 hr 6 hr
Max. Min.
07 13:47 W 16 10.00 A Few Clouds FEW010 69.8 59 69% 29.98 0.0
07 12:51 W 12 10.00 A Few Clouds FEW010 71.6 59 65% 29.99 0.0
07 11:47 W 9 10.00 A Few Clouds FEW010 69.8 57.2 64% 30.01 0.0
07 10:48 W 8 10.00 A Few Clouds FEW010 69.8 57.2 64% 30.01 0.0
07 09:47 W 7 10.00 A Few Clouds FEW010 66.2 57.2 73% 30.02 0.0
07 08:47 W 5 10.00 A Few Clouds FEW010 64.4 55.4 73% 30.03 0.0
07 07:47 Calm 10.00 A Few Clouds FEW010 62.6 55.4 77% 30.03 0.0
07 06:47 Calm 10.00 A Few Clouds FEW010 FEW200 55.4 51.8 88% 30.02 0.0
06 19:50 W 12 10.00 Clear SKC 60.8 55.4 83% 30.02 0.0
06 18:50 W 13 10.00 Clear SKC 64.4 55.4 73% 30.01 0.0
06 17:51 W 15 10.00 A Few Clouds FEW010 66.2 55.4 68% 30 0.0
06 16:50 W 18 G 23 10.00 Partly Cloudy FEW010 SCT090 66.2 55.4 68% 30 0.0
06 15:47 W 17 G 24 10.00 A Few Clouds FEW026 68 55.4 64% 30.01 0.0
06 14:52 W 16 G 24 10.00 A Few Clouds FEW025 71.6 55.4 57% 30.02 0.0
06 13:51 W 14 10.00 A Few Clouds FEW025 69.8 51.8 53% 30.04 0.0
06 12:47 W 12 10.00 A Few Clouds FEW025 69.8 55.4 60% 30.06 0.0
06 11:52 SE 5 10.00 Partly Cloudy SCT030 69.8 53.6 57% 30.07 0.0
06 10:47 E 5 10.00 Partly Cloudy SCT024 69.8 53.6 57% 30.08 0.0
06 09:47 E 3 10.00 Partly Cloudy SCT025 66.2 51.8 60% 30.08 0.0
06 08:50 E 5 10.00 Partly Cloudy SCT025 62.6 53.6 73% 30.08 0.0
06 07:51 Calm 10.00 Partly Cloudy FEW016 SCT027 60.8 53.6 77% 30.08 0.0
06 06:49 Calm 10.00 A Few Clouds FEW012 53.6 51.8 94% 30.07 0.0
05 19:50 SW 5 10.00 Partly Cloudy SCT070 60.8 51.8 72% 29.98 0.0
05 18:50 SW 8 10.00 Partly Cloudy SCT070 62.6 48.2 60% 29.96 0.0
05 17:47 W 8 10.00 Partly Cloudy SCT070 64.4 48.2 56% 29.96 0.0
05 16:50 W 10 10.00 Partly Cloudy FEW010 SCT070 64.4 51.8 64% 29.96 0.0
05 15:47 SW 13 10.00 Partly Cloudy SCT060 66.2 46.4 49% 29.96 0.0
05 14:47 W 12 10.00 Partly Cloudy SCT060 66.2 48.2 52% 29.97 0.0
05 13:50 SW 15 10.00 Partly Cloudy SCT075 68 46.4 46% 29.98 0.0
05 12:47 W 12 10.00 Partly Cloudy SCT075 66.2 50 56% 29.98 0.0
05 11:47 W 14 G 21 10.00 Mostly Cloudy BKN075 64.4 48.2 56% 29.99 0.0
05 10:53 SW 10 10.00 Partly Cloudy FEW019 SCT060 62.6 51.8 68% 29.99 0.0
05 09:49 SW 10 10.00 Partly Cloudy FEW019 SCT060 62.6 51.8 68% 29.97 0.0
05 08:49 SW 12 10.00 Partly Cloudy FEW019 SCT060 62.6 51.8 68% 29.96 0.0
05 07:59 W 12 10.00 Partly Cloudy FEW010 SCT019 SCT060 60.8 51.8 72% 29.95 0.0
05 06:57 W 3 10.00 Mostly Cloudy FEW010 SCT023 BKN075 57.2 51.8 82% 29.94 0.0
04 19:47 S 10 10.00 Overcast SCT022 OVC075 60.8 53.6 77% 29.97 0.0
04 18:49 SW 12 10.00 Overcast FEW022 OVC075 62.6 51.8 68% 29.97 0.0
04 17:47 SW 12 10.00 Overcast FEW022 OVC075 62.6 51.8 68% 29.97 0.0
04 16:50 SW 14 10.00 Overcast SCT043 OVC085 64.4 51.8 64% 29.98 0.0
04 15:48 SW 16 G 24 10.00 Overcast SCT041 OVC085 66.2 51.8 60% 29.97 0.0
04 14:47 SW 18 10.00 Mostly Cloudy SCT041 BKN160 66.2 51.8 60% 29.99 0.0
Date Time (pdt) Wind (mph) Vis. (mi.) Weather Sky Cond. Air Dwpt Max. Min. Relative Humidity Wind Chill (°F) Heat Index (°F) altimeter (in) sea level (mb) 1 hr 3 hr 6 hr
6 hour
Temperature (ºF) Pressure Precipitation (in)